DW6267 Weather Reports


Display with metric or nautical units.
time (UTC)temp
F
wind
direction
speed
MPH
gust
MPH
rain 1hr
in
rain 24hr
in
rain mn
in
humidity
%
barometer
mb
20260510020346 61 123 0.0 0.0 0.00 0.00 0.03 49 1013.4
20260510010345 70 123 0.0 0.0 0.00 0.00 0.03 38 1013.6
20260510000348 71 177 0.0 0.0 0.00 0.00 0.03 25 1014.6
20260509230355 72 92 0.0 0.0 0.00 0.00 0.03 23 1014.8
20260509220340 71 207 0.0 0.0 0.00 0.00 0.03 24 1015.8
20260509210345 70 79 1.0 0.0 0.00 0.00 0.00 25 1015.7
20260509200347 69 34 1.0 0.0 0.00 0.00 0.00 27 1016.1
20260509190346 67 151 2.0 0.0 0.00 0.00 0.00 28 1016.6
20260509180349 63 146 1.0 0.0 0.00 0.00 0.00 35 1017.4
20260509170340 58 56 0.0 0.0 0.00 0.00 0.00 46 1017.9
20260509160348 51 79 0.0 0.0 0.00 0.00 0.00 61 1019.2
20260509150350 42 79 0.0 0.0 0.00 0.00 0.00 81 1019.7
20260509140401 37 79 0.0 0.0 0.00 0.00 0.00 89 1019.0
20260509130339 38 79 0.0 0.0 0.00 0.00 0.00 87 1018.3
20260509120401 40 79 0.0 0.0 0.00 0.00 0.00 84 1017.4
20260509110406 43 79 0.0 0.0 0.00 0.00 0.00 77 1018.3
20260509100337 49 338 1.0 0.0 0.00 0.00 0.00 64 1018.8
20260509090404 50 321 1.0 0.0 0.00 0.00 0.00 61 1018.0
20260509080336 50 298 1.0 0.0 0.00 0.00 0.00 59 1017.9
20260509070342 50 257 1.0 0.0 0.00 0.00 0.00 54 1018.1
20260509060333 50 283 1.0 0.0 0.00 0.00 0.00 48 1017.4
20260509050410 51 305 2.0 0.0 0.00 0.00 0.00 43 1017.6
20260509040336 52 327 2.0 0.0 0.00 0.00 0.00 40 1017.1
20260509030331 53 261 2.0 0.0 0.00 0.00 0.00 35 1016.1